Location: Unspecified
(42.2730°N, 83.7130°W)
Time: 14:08:37
(UTC+00:00)

USA 290 - Pass Details

Date: 14 December 2025
Orbit: 396 x 415 km, 73.6° (Epoch: 30 October)

Event Time Altitude Azimuth Distance (km) Brightness Sun altitude
Rises 12:03:03 0° 195° (SSW) 2,303 6.1 -9.6°
Reaches altitude 10° 12:05:04 10° 193° (SSW) 1,451 5.1 -9.2°
Maximum altitude 12:08:14 72° 109° (ESE) 429 2.5 -8.7°
Drops below altitude 10° 12:11:27 10° 24° (NNE) 1,472 5.0 -8.2°
Sets 12:13:30 0° 23° (NNE) 2,340 6.0 -7.8°
